カタログに戻る

STARLINK-37816

運用中通信SSO
NORAD 69478·PAYLOAD·🇺🇸 United States

打ち上げ Jun 11, 2026 から Vandenberg Space Force Base

Loading…

次のパス (今後24時間)

TLE

最新Source: CelesTrak SupGP

元期: Sep 14, 2026, 22:29 UTC

1 69478C 26131A   26257.93729167  .00046572  00000+0  14459-2 0  2578
2 69478  97.2831 278.9661 0001202  93.0855 151.0321 15.33412272    14

AllMySatでSTARLINK-37816をリアルタイム追跡

Download on the App Store